Location: Ostrava
(49.8330°N, 18.2830°E)
Time: 04:57:37
(UTC+01:00)

Iridium 39 - Visible Passes

Search period start: 25 November 2017 00:00
Search period end: 05 December 2017 00:00
Orbit: 723 x 752 km, 86.4° (Epoch: 24 November)

Date Brightness Start Highest point End Pass type
(mag) Time Alt. Az. Time Alt. Az. Time Alt. Az.
25 Nov 6.6 16:43:22 10° SSW 16:48:19 59° W 16:53:17 10° N visible
26 Nov 8.5 17:39:55 10° WSW 17:43:29 19° WNW 17:47:03 10° NNW visible
27 Nov 7.4 16:53:12 10° SSW 16:57:53 39° WNW 17:02:34 10° N visible
28 Nov 8.8 17:50:56 10° W 17:53:16 13° WNW 17:55:36 10° NW visible
29 Nov 8.0 17:03:19 10° SW 17:07:31 27° WNW 17:11:44 10° NNW visible
01 Dec 8.5 17:13:47 10° WSW 17:17:14 18° WNW 17:20:41 10° NNW visible
02 Dec 7.4 16:26:59 10° SSW 16:31:36 38° WNW 16:36:14 10° N visible
03 Dec 8.7 17:24:52 10° W 17:27:00 13° WNW 17:29:07 10° NW visible
04 Dec 8.1 16:37:06 10° SW 16:41:14 26° WNW 16:45:23 10° NNW visible
